Regional Weather Roundup
Issued by NWS

Home | Current Version | Previous Version | Text Only | Print | Product List | Glossary Off
Versions: 1 2 3 4 5 6 7 8 9 10 11 12 13 14 15 16 17 18 19 20 21 22 23 24 25 26 27 28 29 30 31 32 33 34 35 36 37 38 39 40 41 42 43 44 45 46 47 48 49 50

000
ASUS43 KLMK 231710
RWRKY
KENTUCKY REGIONAL WEATHER ROUNDUP
NATIONAL WEATHER SERVICE LOUISVILLE KY
100 PM EDT MON APR 23 2018

NOTE "FAIR" INDICATES FEW OR NO CLOUDS BELOW 12,000 FEET
WITH NO SIGNIFICANT WEATHER AND/OR OBSTRUCTIONS TO VISIBILITY.

KYZ001>023-026-027-061>063-070>075-231800-
WESTERN AND SOUTH CENTRAL KENTUCKY

CITY           SKY/WX    TMP DP  RH WIND       PRES   REMARKS
PADUCAH        LGT RAIN  61  58  90 SE10      29.88S FOG
HENDERSON      CLOUDY    61  57  87 E10       29.96S
OWENSBORO      CLOUDY    63  56  78 E14       29.97S
HOPKINSVILLE   PTSUNNY   62  62 100 E9        29.91F
BOWLING GREEN  CLOUDY    65  57  75 E10       29.96F
GLASGOW        CLOUDY    64  53  69 SE12      29.98F
$$

KYZ024-025-028>034-038-045-046-053-231800-
NORTH CENTRAL KENTUCKY

CITY           SKY/WX    TMP DP  RH WIND       PRES   REMARKS
LOUISVILLE/SDF LGT RAIN  59  56  89 E10       30.04F
LOUISVILLE/LOU LGT RAIN  58  56  93 E12G18    30.05F
FORT KNOX      CLOUDY    58  58 100 E12       30.02S
$$

KYZ035>037-039>044-047>052-055>060-089>105-231800-
NORTHEAST KENTUCKY

CITY           SKY/WX    TMP DP  RH WIND       PRES   REMARKS
LEXINGTON      PTSUNNY   58  54  86 E15G22    30.08F
COVINGTON      LGT RAIN  54  52  93 E12       30.12F FOG
FRANKFORT      CLOUDY    58  54  86 E13       30.06F
$$

KYZ054-064>069-076>088-106>120-231800-
SOUTHEAST KENTUCKY

CITY           SKY/WX    TMP DP  RH WIND       PRES   REMARKS
JACKSON        LGT RAIN  55  50  83 MISG      30.13R
LONDON         CLOUDY    60  32  34 SE14G29   30.07S
SOMERSET       CLOUDY    63  48  59 SE12G22   30.05F
MIDDLESBORO    LGT RAIN  56  51  85 SE6       30.11F
MONTICELLO     CLOUDY    64  53  67 SE9G18    30.04S
$$




USA.gov is the U.S. government's official web portal to all federal, state and local government web resources and services.